This is the latest recevied weather packets stored in our database for station/object N2XP. If no packets are shown the sender has not sent any weather packets the latest 1 day(s).
| Time | Temp. | Humidity | Pressure | Rain* | Wind** | Luminosity | Snow |
|---|---|---|---|---|---|---|---|
| 1778077832 | 17.78° C | 81% | 1006.4 hPa | 0 mm | - | - | - |
| 1778076931 | 17.78° C | 81% | 1006.2 hPa | 0 mm | - | - | - |
| 1778076027 | 17.78° C | 81% | 1006.2 hPa | 0 mm | - | - | - |
| 1778075127 | 17.78° C | 81% | 1006.4 hPa | 0 mm | - | - | - |
| 1778074226 | 17.78° C | 82% | 1006.5 hPa | 0 mm | - | - | - |
| 1778069722 | 17.22° C | 83% | 1006.4 hPa | 0 mm | - | - | - |
| 1778067920 | 17.22° C | 84% | 1006.7 hPa | 0 mm | - | - | - |
| 1778066122 | 16.67° C | 85% | 1006.6 hPa | 0 mm | - | - | - |
| 1778058913 | 16.11° C | 86% | 1006.5 hPa | 0 mm | - | - | - |
| 1778057107 | 15.56° C | 85% | 1006.6 hPa | 0 mm | - | - | - |
| 1778054404 | 16.11° C | 82% | 1006.8 hPa | 0 mm | - | - | - |
| 1778053568 | 16.11° C | 81% | 1006.8 hPa | 0 mm | - | - | - |
| 1778052658 | 16.67° C | 80% | 1006.9 hPa | 0 mm | - | - | - |
| 1778051761 | 16.67° C | 80% | 1006.8 hPa | 0 mm | - | - | - |
| 1778050861 | 16.67° C | 79% | 1006.8 hPa | 0 mm | - | - | - |
| 1778049054 | 17.22° C | 77% | 1007.2 hPa | 0 mm | - | - | - |
| 1778047245 | 17.22° C | 75% | 1007.3 hPa | 0 mm | - | - | - |
| 1778046354 | 17.22° C | 75% | 1007.2 hPa | 0 mm | - | - | - |
| 1778045445 | 17.78° C | 74% | 1007.5 hPa | 0 mm | - | - | - |
| 1778044544 | 17.78° C | 74% | 1007.6 hPa | 0 mm | - | - | - |
| 1778043627 | 17.78° C | 74% | 1007.7 hPa | 0 mm | - | - | - |
| 1778041824 | 17.78° C | 72% | 1007.7 hPa | 0 mm | - | - | - |
| 1778040921 | 18.33° C | 72% | 1007.7 hPa | 0 mm | - | - | - |
| 1778040020 | 18.33° C | 71% | 1007.7 hPa | 0 mm | - | - | - |
| 1778039137 | 18.89° C | 70% | 1007.7 hPa | 0 mm | - | - | - |
* Rain latest hour (hover to see other rain measurements)
** Current wind speed in m/s (hover to see current wind gust speed)